Volver al catálogo

STARLINK-31077

ActivoComunicacionesVLEO
NORAD 58637·PAYLOAD·🇺🇸 United States

Lanzado Dec 23, 2023 desde Cape Canaveral Space Force Station

Loading…

Próximos Pases (próximas 24 horas)

TLE

ActualizadoSource: CelesTrak SupGP

Época: Sep 15, 2026, 03:10 UTC

1 58637C 23203V   26258.13243056 -.00022573  00000+0 -81714-3 0  2588
2 58637  43.0030  77.4711 0001454 278.2200 358.3213 15.27607474    12

Sigue STARLINK-31077 en tiempo real con AllMySat

Download on the App Store